Погода в Шумихе

Россия / Алтайский край     53°37′06″N   85°59′43″E
темп.,
°C
ветер,
м/с
пор.,
м/с
влажн.,
%
обл.,
%
осадки,
мм/ч
давл.,
гПа
погр.,
м
23 сентября, чт
чт2301:00+4юз4986100 0.7 1020623
04:00+3юз4993100 0.4 1020682
07:00+3зюз3698100 0.8 1021448
10:00+3зюз3496100 0.4 1022518
13:00+6зсз237098 0.7 10211034
16:00+7з236799 0.4 1021881
19:00+4ссз228626 0.9 102219
22:00+1с118978 0.0 102310
24 сентября, пт
пт2401:00+2ссз1290100 0.0 102360
04:00+2ссв1299100 0.1 1024337
07:00+3зсз139379 0.3 1025306
10:00+4з337931 0.0 1025638
13:00+7з4458100 0.1 10251522
16:00+6з4558100 0.1 10261099
19:00+4сз456695 0.1 1028588
22:00+2ююз2375100 0.0 102848
25 сентября, сб
сб2501:00+1юз2477100 0.0 102892
04:00+1ююз2678100 0.0 1027153
07:00+1ююз3873100 0.0 1027315
10:00+4юз6862100 0.0 1026773
13:00+7юз6856100 0.0 10241400
16:00+8зюз6848100 0.0 10221618
19:00+6ююз3558100 0.1 1021150
22:00+4ююз2689100 0.8 1020503
26 сентября, вс
вс2601:00+2ю3897100 2.9 1018448
04:00+2ююз4998100 1.3 1016523
07:00+2з3599100 2.1 1015478
10:00+2з4699100 0.3 1016334
13:00+1з5998100 2.5 1018477
16:00+2з4786100 0.6 1020638
19:00+1зсз4798100 0.9 1022294
22:00−1з3696100 0.1 1023250
27 сентября, пн
пн2701:00−1зюз3796100 0.4 1023335
04:00−1юз4898100 1.7 1023375
07:00−1ююз3698100 2.8 1024317
10:00−1ююв349387 0.5 1025392
13:00+2юв2382100 0.5 1024759
16:00+3всв468299 0.0 1023775
19:000св4990100 0.0 1022280
22:00−1св51290100 0.0 1021332